Погода в Мышкине

Россия / Московская область     55°40′03″N   35°40′54″E
темп.,
°C
ветер,
м/с
пор.,
м/с
влажн.,
%
обл.,
%
осадки,
мм/ч
давл.,
гПа
погр.,
м
12 апреля, пн
пн1200:00+7ююв22760 0.0 103219
03:00+6юв22813 0.0 103327
06:00+4вюв3583100 0.0 103380
09:00+9вюв41163100 0.0 1032474
12:00+12вюв61045100 0.0 1031887
15:00+13вюв5949100 0.0 1029895
18:00+11вюв51069100 0.0 1027567
21:00+9юв41186100 0.0 1027364
13 апреля, вт
вт1300:00+8вюв3109498 0.0 1026273
03:00+7вюв31096100 0.0 1025226
06:00+6юв3796100 0.0 1025164
09:00+11ююв4877100 0.0 1024286
12:00+16ююв4759100 0.0 1023630
15:00+19ю5748100 0.0 10221562
18:00+16ююв365898 0.0 1022140
21:00+12юв3973100 0.0 1022172
14 апреля, ср
ср1400:00+10юв3117616 0.0 1022212
03:00+8ююв3107932 0.0 1021189
06:00+7юв2384100 0.0 102143
09:00+13юв476544 0.0 1020329
12:00+17ю5750100 0.0 10191091
15:00+18ююв474431 0.0 10181844
18:00+17ююв3548100 0.0 1017145
21:00+11юв236384 0.0 101832
15 апреля, чт
чт1500:00+10юв2267100 0.0 101731
03:00+9ю116982 0.0 101713
06:00+9ссв117399 0.0 101717
09:00+12ю2365100 0.0 1017244
12:00+16ююз2459100 0.0 10171106
15:00+16ююз2356100 0.3 1016932
18:00+15ссз1165100 0.2 101614
21:00+10с2486100 0.5 101662
16 апреля, пт
пт1600:00+10с3494100 2.1 101793
03:00+7ссв4109472 2.5 1017259
06:00+7ссв51095100 0.0 1018369
09:00+7св61087100 0.0 1019536
12:00+9св6981100 0.0 1020775
15:00+8св71183100 0.0 1022777
18:00+7св51374100 0.0 1023953
21:00+6св613604 0.0 1024802